"Pseudo-MPEC" for P20ORz2

Created 2019 Jun 17 11:08:04 UT using Find_Orb

Click here for an explanation of pseudo-MPECs

 
 Astrometry: 
     P20ORz2  C2019 05 25#mgxh\jg%aU8Q32;1LBNy*ZqdIT_LG$ibn,)NG^@yKv1f.8.6klpF51
     P20ORz2  C2019 05 25I[e#t7%pndEl]3!.cftqX\.J)Xf,mR/gC4A9)]X]\$_?7:'U[UL9F51
     P20ORz2  C2019 06 0884=um*':6j(3YI'a9yC=9=/-DdBj\l%ygL]HfM8H;qLB33[g0RZMF52
     P20ORz2  C2019 06 08agLKdFruy9G7agy6YKbU8Oj%_C9g*[m0EskE!D^5ECTxY3#uC$3AF52
     P20ORz2  C2019 06 08dV[+;RKaKQ,p,*.b@-+t+Astrometryeac:*%?r]N5Bi+tnFyy,IF52
     P20ORz2  C2019 06 08_7WGWdS+IrF22+k+#lh+'0u3^C3]C@,(W=Ph']M+UsqAXcM5UoA6F52
     P20ORz2 HC2019 06 09Zp#r97V6W?4ZIV;redacted;`)F;V65[=$63ELG;*?/AOExlfgBA691
     P20ORz2 HC2019 06 09'%BB[:3JuPOe=tkdju^y3Dn%=4_^0[f5#bqquulLJWCyHbCDFB:Y691
     P20ORz2 HC2019 06 09@c9]wclickRv.3bC6JnaFDSLndoGg1jeWf%kaB^x@6tNJ\K:-t-/691
     P20ORz2  C2019 06 10Yft(han2LKy+p:NT8HkgPoI!/0Oe=muP4I3d'4j,gu#'#1tKVa!KF51
     P20ORz2  C2019 06 100W5u,lTOChx0Db7X,wF('_2!ehereBb@nMw)^]nl37Z1GXN86Z66F51
     P20ORz2  C2019 06 10jrVVsAy6am=_P?w33iF%#2[:sqt/bkSZG0-h/wOVnh,g?sU.fortF51
     P20ORz2  C2019 06 10Z1,:lF3explanationtvZ?Pnf`U.I-8%!eiF8D.2X@Lf`^m\r2ffF51

Station data:
(691) Steward Observatory, Kitt Peak - Spacewatch  (N31.962174 W111.600327)
   US/Arizona.  Observer J. V. Scotti. 0.9-m f/3 reflector + CCD.
(F51) Pan-STARRS 1, Haleakala  (N20.707235 W156.255910)  US/Hawaii.
   Observers N. Primak, A. Schultz, S. Watters, J. Thiel, T. Goggia. Measurer
   PS1 Science Consortium. 1.8-m Ritchey-Chrétien + CCD.
(F52) Pan-STARRS 2, Haleakala  (N20.707384 W156.255910)  US/Hawaii. 1.8-m
   Ritchey-Chrétien + CCD.

Orbital elements:  P20ORz2
   Perihelion 2019 Sep 10.511438 +/- 0.0999 TT = 12:16:28 (JD 2458737.011438)
Epoch 2019 Jun 10.0 TT = JDT 2458644.5   Earth MOID: 0.0413   Ma: 0.0564
M 308.35715682 +/- 0.058            (J2000 ecliptic)          AutoNEOCP
n   0.55823198 +/- 0.00117          Peri.   68.54466 +/- 0.08
a   1.46080722 +/- 0.00205          Node   270.06983 +/- 0.029
e   0.3069687 +/- 0.00109           Incl.    2.93773 +/- 0.011
P   1.77/644.88d           H 22.2   G  0.15   U  8.2  
q 1.01238508 +/- 0.000179    Q 1.90922935 +/- 0.00426
From 13 observations 2019 May 25-June 10; mean residual 0".28
Residuals in arcseconds: 
190525 F51  .01+  .02-    190608 F52  .05-  .14+    190610 F51  .10-  .02+    
190525 F51  .00   .02+    190609 691  .60+  .04-    190610 F51  .01+  .02-    
190608 F52  .15-  .05-    190609 691  .80-  .16+    190610 F51  .08-  .08+    
190608 F52  .15-  .07+    190609 691  .82+  .47-    
190608 F52  .09-  .07+    190610 F51  .11-  .09+    

Ephemerides (geocentric):
Date (UTC) HH   RA              Dec         delta   r     elong  mag " sig PA
---- -- -- --  -------------   -----------  ------ ------ -----  --- ---- ---
2019 06 17 11  15 09 30.330   -20 28 17.39  .28386 1.2585 144.8 21.2 2.93  53
2019 06 17 12  15 09 26.456   -20 27 38.27  .28379 1.2583 144.7 21.2 2.95  53
2019 06 17 13  15 09 22.588   -20 26 59.15  .28372 1.2581 144.6 21.2 2.97  53
2019 06 17 14  15 09 18.725   -20 26 20.02  .28365 1.2579 144.6 21.2 2.99  53
2019 06 17 15  15 09 14.868   -20 25 40.89  .28358 1.2577 144.5 21.2 3.02  53
2019 06 17 16  15 09 11.016   -20 25 01.76  .28352 1.2575 144.5 21.2 3.04  53
2019 06 17 17  15 09 07.170   -20 24 22.62  .28345 1.2573 144.4 21.2 3.06  53
2019 06 17 18  15 09 03.329   -20 23 43.48  .28338 1.2571 144.4 21.2 3.08  53
2019 06 17 19  15 08 59.493   -20 23 04.33  .28331 1.2569 144.3 21.2 3.11  54
2019 06 17 20  15 08 55.664   -20 22 25.19  .28324 1.2568 144.2 21.2 3.13  54
2019 06 17 21  15 08 51.840   -20 21 46.03  .28318 1.2566 144.2 21.2 3.15  54
2019 06 17 22  15 08 48.021   -20 21 06.88  .28311 1.2564 144.1 21.2 3.18  54
2019 06 17 23  15 08 44.208   -20 20 27.72  .28304 1.2562 144.1 21.2 3.20  54
2019 06 18 00  15 08 40.400   -20 19 48.56  .28297 1.2560 144.0 21.2 3.22  54
2019 06 18 01  15 08 36.599   -20 19 09.40  .28290 1.2558 144.0 21.2 3.25  54
2019 06 18 02  15 08 32.802   -20 18 30.23  .28284 1.2556 143.9 21.2 3.27  54
2019 06 18 03  15 08 29.012   -20 17 51.06  .28277 1.2554 143.9 21.2 3.30  54
2019 06 18 04  15 08 25.227   -20 17 11.89  .28270 1.2552 143.8 21.2 3.32  54
2019 06 18 05  15 08 21.447   -20 16 32.71  .28264 1.2551 143.7 21.2 3.34  54
2019 06 18 06  15 08 17.674   -20 15 53.53  .28257 1.2549 143.7 21.2 3.37  54
2019 06 18 07  15 08 13.906   -20 15 14.35  .28250 1.2547 143.6 21.2 3.39  55
2019 06 18 08  15 08 10.143   -20 14 35.17  .28244 1.2545 143.6 21.2 3.42  55
2019 06 18 09  15 08 06.387   -20 13 55.99  .28237 1.2543 143.5 21.2 3.44  55
2019 06 18 10  15 08 02.636   -20 13 16.80  .28231 1.2541 143.5 21.2 3.47  55
2019 06 18 11  15 07 58.890   -20 12 37.61  .28224 1.2539 143.4 21.2 3.49  55
2019 06 18 12  15 07 55.151   -20 11 58.42  .28217 1.2537 143.3 21.2 3.51  55
2019 06 18 13  15 07 51.417   -20 11 19.23  .28211 1.2536 143.3 21.2 3.54  55
2019 06 18 14  15 07 47.689   -20 10 40.04  .28204 1.2534 143.2 21.2 3.56  55
2019 06 18 15  15 07 43.966   -20 10 00.84  .28198 1.2532 143.2 21.2 3.59  55
2019 06 18 16  15 07 40.250   -20 09 21.64  .28191 1.2530 143.1 21.2 3.61  55
2019 06 18 17  15 07 36.539   -20 08 42.45  .28185 1.2528 143.1 21.2 3.64  55
2019 06 18 18  15 07 32.834   -20 08 03.25  .28178 1.2526 143.0 21.2 3.66  55
2019 06 18 19  15 07 29.135   -20 07 24.05  .28172 1.2524 143.0 21.2 3.69  56
2019 06 18 20  15 07 25.441   -20 06 44.84  .28165 1.2522 142.9 21.2 3.72  56
2019 06 18 21  15 07 21.754   -20 06 05.64  .28159 1.2520 142.8 21.2 3.74  56
2019 06 18 22  15 07 18.072   -20 05 26.44  .28152 1.2519 142.8 21.2 3.77  56
2019 06 18 23  15 07 14.396   -20 04 47.23  .28146 1.2517 142.7 21.2 3.79  56
2019 06 19 00  15 07 10.725   -20 04 08.03  .28140 1.2515 142.7 21.2 3.82  56
2019 06 19 01  15 07 07.061   -20 03 28.82  .28133 1.2513 142.6 21.2 3.84  56
2019 06 19 02  15 07 03.403   -20 02 49.62  .28127 1.2511 142.6 21.2 3.87  56
2019 06 19 03  15 06 59.750   -20 02 10.41  .28120 1.2509 142.5 21.2 3.90  56
2019 06 19 04  15 06 56.103   -20 01 31.21  .28114 1.2507 142.4 21.2 3.92  56
2019 06 19 05  15 06 52.462   -20 00 52.00  .28108 1.2505 142.4 21.2 3.95  56
2019 06 19 06  15 06 48.827   -20 00 12.80  .28101 1.2504 142.3 21.2 3.97  56
2019 06 19 07  15 06 45.198   -19 59 33.59  .28095 1.2502 142.3 21.2 4.00  56
2019 06 19 08  15 06 41.575   -19 58 54.38  .28089 1.2500 142.2 21.2 4.03  57
2019 06 19 09  15 06 37.958   -19 58 15.18  .28082 1.2498 142.2 21.2 4.05  57
2019 06 19 10  15 06 34.347   -19 57 35.97  .28076 1.2496 142.1 21.2 4.08  57